Augusta, ME

4:48 AM EST on December 06, 2016 (GMT -0500)
Augusta State

Weather History for KAUG - April, 2013

Change the Weather History Date:

Friday, April 26, 2013

  Actual Average Record
Temperature  
Mean Temperature 48 °F 48 °F  
Max Temperature 60 °F 58 °F 74 °F (2009)
Min Temperature 36 °F 38 °F 30 °F (2005)
Degree Days  
Heating Degree Days 17 17  
Month to date heating degree days 571  
Since 1 July heating degree days 6940  
Cooling Degree Days 0 0  
Month to date cooling degree days 0  
Year to date cooling degree days 0  
Moisture  
Dew Point 26 °F    
Average Humidity 47    
Maximum Humidity 67    
Minimum Humidity 22    
Precipitation  
Precipitation 0.00 in 0.12 in 0.64 in (1994)
Month to date precipitation 3.26  
Year to date precipitation 11.67  
Sea Level Pressure  
Sea Level Pressure 30.40 in    
Wind  
Wind Speed 4 mph (NW)    
Max Wind Speed 8 mph    
Max Gust Speed -    
Visibility 10 miles    
Events      
T = Trace of Precipitation, MM = Missing Value Source: NWS Daily Summary

Daily Weather History Graph

Daily Weather History Graph

Search for Another Location

Airport or City:

Trip Planner

Search our weather history database for the weather conditions in past years. The results will help you decide how hot, cold, wet, or windy it might be!

Date:

Astronomy

Apr. 26, 2013 Rise Set
Actual Time 5:37 AM EDT 7:37 PM EDT
Civil Twilight 5:05 AM EDT 8:08 PM EDT
Nautical Twilight 4:27 AM EDT 8:47 PM EDT
Astronomical Twilight 3:45 AM EDT 9:29 PM EDT
Moon 8:59 PM EDT (4/26) 6:00 AM EDT (4/26)
Length of Visible Light 15h 02m
Length of Day
14h 00m
Full, 99% of the Moon is Illuminated
Apr 26
Full
May 2
Last Quarter
May 9
New
May 18
First Quarter
May 25
Full

Hourly Weather History & Observations

Time (EDT) Temp. Windchill Dew Point Humidity Pressure Visibility Wind Dir Wind Speed Gust Speed Precip Events Conditions
12:53 AM 39.9 °F 35.8 °F 26.1 °F 58% 30.32 in 10.0 mi NNW 5.8 mph - N/A   Clear
1:53 AM 39.0 °F 35.7 °F 26.1 °F 60% 30.32 in 10.0 mi NNW 4.6 mph - N/A   Clear
2:53 AM 39.2 °F 37.0 °F 24.8 °F 56% 30.32 in 10.0 mi North 3.5 mph - N/A   Clear
3:53 AM 37.9 °F - 25.0 °F 60% 30.35 in 10.0 mi Calm Calm - N/A   Clear
4:53 AM 37.0 °F - 25.0 °F 62% 30.37 in 10.0 mi Calm Calm - N/A   Clear
5:53 AM 36.0 °F 32.1 °F 25.0 °F 64% 30.38 in 10.0 mi North 4.6 mph - N/A   Clear
6:53 AM 37.0 °F 32.4 °F 27.0 °F 67% 30.42 in 10.0 mi NNW 5.8 mph - N/A   Clear
7:53 AM 42.1 °F 37.1 °F 27.0 °F 55% 30.43 in 10.0 mi NNE 8.1 mph - N/A   Clear
8:53 AM 45.0 °F 41.2 °F 28.0 °F 52% 30.44 in 10.0 mi NNE 6.9 mph - N/A   Clear
9:53 AM 48.9 °F - 28.9 °F 46% 30.45 in 10.0 mi Variable 4.6 mph - N/A   Clear
10:53 AM 52.0 °F - 28.0 °F 40% 30.45 in 10.0 mi Calm Calm - N/A   Clear
11:53 AM 55.0 °F - 28.0 °F 35% 30.44 in 10.0 mi Calm Calm - N/A   Clear
12:53 PM 54.0 °F - 25.0 °F 33% 30.43 in 10.0 mi Calm Calm - N/A   Partly Cloudy
1:53 PM 57.0 °F - 25.0 °F 29% 30.41 in 10.0 mi NW 6.9 mph - N/A   Clear
2:53 PM 59.0 °F - 21.9 °F 24% 30.39 in 10.0 mi Variable 4.6 mph - N/A   Clear
3:53 PM 57.9 °F - 21.9 °F 25% 30.38 in 10.0 mi Variable 5.8 mph - N/A   Clear
4:53 PM 60.1 °F - 21.0 °F 22% 30.37 in 10.0 mi Calm Calm - N/A   Partly Cloudy
5:53 PM 55.9 °F - 28.0 °F 34% 30.38 in 10.0 mi SSW 8.1 mph - N/A   Clear
6:53 PM 52.0 °F - 28.0 °F 40% 30.39 in 10.0 mi South 6.9 mph - N/A   Clear
7:53 PM 48.9 °F - 28.0 °F 44% 30.41 in 10.0 mi South 5.8 mph - N/A   Clear
8:53 PM 46.0 °F 43.1 °F 28.0 °F 50% 30.43 in 10.0 mi SSW 5.8 mph - N/A   Clear
9:53 PM 44.1 °F 41.5 °F 28.0 °F 53% 30.43 in 10.0 mi SW 4.6 mph - N/A   Clear
10:53 PM 42.1 °F - 28.9 °F 60% 30.42 in 10.0 mi Calm Calm - N/A   Clear
11:53 PM 41.0 °F - 30.9 °F 67% 30.42 in 10.0 mi Calm Calm - N/A   Clear